Other Surface Observations
Issued by NWS Tucson, AZ

Home | Current Version | Previous Version | Text Only | Print | Product List | Glossary On
Versions: 1 2 3 4 5 6 7 8 9 10 11 12 13 14 15 16 17 18 19 20 21 22 23 24 25 26 27 28 29 30 31 32 33 34 35 36 37 38 39 40 41 42 43 44 45 46 47 48 49 50
000
SXUS55 KTWC 261915
OSOTWC

WEATHER ROUNDUP FOR SOUTHEAST ARIZONA
NATIONAL WEATHER SERVICE TUCSON AZ
1215 PM MST SUN FEB 26 2017

AZZ504>506-514-262015-
LOCATION       SKY/WX    TMP DP  RH WIND       PRES   REMARKS
TUCSON         CLOUDY    63  10  12 W14       29.96S
DAVIS-MONTHAN  CLOUDY    64  13  13 NW8G21    29.95S
CHILDRENS PARK N/A      N/A N/A  18 W4                PIMA CO DEQ
ALVERNON/22ND  N/A       62 N/A N/A NW5               PIMA CO DEQ
CHERRY/GLENN   N/A       64 N/A N/A W2                PIMA CO DEQ
TANGERINE      N/A       61 N/A N/A W5                PIMA CO DEQ
CONTL RANCH    N/A       62  17  17 W7                PIMA CO DEQ
GRANT/1ST      N/A       62  14  15 NW5               PIMA CO DEQ
CRAYCROFT/22ND N/A       62  12  14 N/A               PIMA CO DEQ
GOLFLINKS/KOLB N/A       62  12  14 W6                PIMA CO DEQ
AJO/12TH       N/A       63  11  13 SW7               PIMA CO DEQ
FAIRGROUNDS    N/A       61 N/A N/A SW13              PIMA CO DEQ
SAGUARO        N/A       62  14  15 W6G11             *SABINO CYN
SAN CARLOS     N/A       55  26  32 E3                *SAN CARLOS
GREEN VALLEY   N/A       61   6  11 SW17              PIMA CO DEQ
HORSE CAMP CYN N/A       52  16  24 SW5               *ARAVAIPA CYN
RINCON MTNS    NOT AVBL
$$

AZZ509>511-262015-
LOCATION       SKY/WX    TMP DP  RH WIND       PRES   REMARKS
SAFFORD        CLOUDY    60  15  17 NW13      29.94R
STRAY HORSE    N/A       34  14  44 N/A               *
TRAIL CABIN    N/A       45  15  29 NW5G11            *N OF GRANVILLE
BLACK HILLS    NOT AVBL
DRY LAKE       N/A       37   9  31 SW6G13            *NATANES MTNS
NOON CREEK     NOT AVBL
COLUMBINE      N/A       26   0  32 SW8G17            *PINALENO MTNS
GUTHRIE        N/A       44  10  24 SW3G12            *SW OF GUTHRIE
$$

AZZ502-503-513-262015-
LOCATION       SKY/WX    TMP DP  RH WIND       PRES   REMARKS
NOGALES        CLOUDY    59   4  11 SW14      29.98S
SELLS          N/A       63  20  19 W10G17            *
SASABE         N/A       61  11  14 SW15G22           *ALTAR VLY
HOPKINS        N/A       41  -1  16 W8G21             *SANTA RITA MTNS
CARR CYN       N/A       54   6  14 SW5G17            *W OF HEREFORD
$$

AZZ507-508-512-262015-
LOCATION       SKY/WX    TMP DP  RH WIND       PRES   REMARKS
SIERRA VISTA   CLOUDY    61   6  11 SW15G24   29.97S
DOUGLAS        CLOUDY    62  12  14 SW29G37   29.94F
EMPIRE MTNS    NOT AVBL
MULESHOE RANCH N/A       57  10  15 W6G14             *PRESERVE
HEADQUARTERS   NOT AVBL
$$

.............................NOTES.............................
THIS IS AN AUTOMATED COLLECTIVE WITH MINIMAL QUALITY CONTROL.
PIMA CO DEQ SITES HAVE NONSTANDARD WIND SENSOR HEIGHTS.
PIMA CO DEQ SITES DO NOT REPORT WIND GUSTS.
* INDICATES WIND SENSORS LOCATED AT 20 FEET INSTEAD OF 33 FEET.
..............................KEY..............................
SKY/WX - SKY CONDITION/WEATHER
TMP    - TEMPERATURE IN FAHRENHEIT
DP     - DEWPOINT IN FAHRENHEIT
RH     - RELATIVE HUMIDITY IN PERCENT
WIND   - DIRECTION AND SPEED IN MILES PER HOUR (MPH)
VRB    - VARIABLE WIND DIRECTION
PRES   - MEAN SEA LEVEL PRESSURE IN INCHES OF MERCURY
         F - FALLING PRESSURE   R - RISING PRESSURE
         S - STEADY PRESSURE
VSB    - VISIBILITY IN MILES
HX     - HEAT INDEX IN FAHRENHEIT
WCI    - WIND CHILL INDEX IN FAHRENHEIT
N/A    - NOT AVAILABLE
AFB    - AIR FORCE BASE
         DAVIS-MONTHAN IS DAVIS-MONTHAN AIR FORCE BASE
CYN    - CANYON
MTNS   - MOUNTAINS
NCA    - NATIONAL CONSERVATION AREA
NR     - NEAR
VLY    - VALLEY
CONTL  - CONTINENTAL
PIMA CO DEQ - PIMA COUNTY DEPT OF ENVIRONMENTAL QUALITY



USA.gov is the U.S. government's official web portal to all federal, state and local government web resources and services.